RH
41 45 45 38 38 44 43 51 50 30 24 23 22 20 20 21 23 21 19 17 17 18 19 19 20 22 22 22 20 16 13 13 12 10 13 30 41 43 29 45 93 83 80 70 29
87 82 57 61 56 31 36 42 42 38 36 31 25 24 23 18 20 21 22 19 19 20 26 30 26 26 25 26 27 20 16 16 14 12 12 11 10 18 32 33 26 35 92 93 53
83 79 93 81 69 77 61 42 31 31 26 23 26 21 34 28 20 17 23 26 30 32 35 26 32 29 25 20 18 16 12 11 11 12 12 12 11 8 8 16 28 27 36 100 82
100 100 96 76 59 58 61 62 65 60 55 68 76 96 91 55 49 38 25 23 23 23 30 38 36 36 26 20 21 22 21 20 18 15 11 10 10 11 8 6 9 11 26 30 100
100 100 100 100 98 67 52 50 49 61 56 57 74 80 64 74 100 100 100 94 62 73 61 37 34 35 34 29 30 30 24 23 18 15 14 12 8 8 5 5 5 5 7 21 29
82 79 94 85 98 100 99 100 94 81 71 70 73 55 51 64 71 95 100 100 97 69 56 49 51 51 47 46 33 26 26 18 15 9 9 10 10 10 8 7 6 6 5 6 25
100 89 95 97 100 100 87 93 100 94 100 100 83 84 98 100 94 74 71 64 55 69 75 71 73 60 53 42 35 22 18 14 10 6 6 6 6 8 10 11 12 10 6 5 5
90 85 78 71 62 63 62 64 63 64 59 59 64 74 84 84 81 93 92 91 95 75 61 61 56 51 41 34 34 23 18 10 11 5 7 3 4 6 5 7 9 10 10 7 5
92 90 88 78 68 64 51 48 47 43 41 45 56 61 55 52 58 70 69 66 61 59 57 56 48 39 44 38 35 30 18 9 10 7 5 3 4 4 5 5 5 6 9 9 9
87 63 60 45 41 42 39 44 44 43 48 51 50 52 50 54 57 59 58 55 55 56 56 61 47 44 39 33 30 20 12 9 6 4 4 3 3 3 3 3 3 5 7 8 10
53 49 46 50 53 51 49 52 58 58 68 66 63 60 59 58 61 63 64 63 57 59 58 53 44 39 36 31 29 13 12 6 4 4 4 3 3 3 2 2 3 3 6 6 7
50 46 48 56 62 69 68 62 58 66 72 70 70 71 66 62 62 68 66 66 62 64 64 56 47 41 40 30 25 14 10 5 5 5 4 4 3 3 2 3 4 5 6 7 7
84 80 77 70 71 74 72 68 67 68 71 73 71 82 76 71 65 61 63 61 60 65 69 66 49 46 40 40 22 14 9 7 6 5 5 4 4 3 3 3 3 5 8 7 8
90 98 100 98 94 95 96 96 90 80 71 71 69 76 75 79 73 71 75 79 71 64 61 71 64 51 49 52 31 23 11 8 7 7 5 4 4 3 3 4 4 6 7 7 8
99 100 100 100 100 100 100 100 100 98 100 96 77 69 68 65 69 68 64 64 72 82 68 60 80 58 54 84 62 44 28 18 11 8 6 5 4 4 4 5 6 8 7 8 12
94 94 100 100 100 100 100 100 99 100 100 100 100 100 89 84 73 74 71 67 69 74 78 65 65 74 58 68 76 75 58 34 17 12 12 7 6 6 6 7 14 16 13 18 23
100 100 98 100 100 100 100 100 100 100 100 100 100 100 100 88 88 84 80 81 78 74 78 83 65 83 70 78 83 90 84 57 36 18 49 17 9 11 10 13 12 11 14 28 100
100 100 100 100 94 100 100 100 100 100 100 100 100 100 100 100 98 92 88 88 80 76 74 86 93 69 80 62 93 99 94 76 54 36 45 71 29 24 16 62 37 31 18 34 100
100 100 100 100 100 100 100 92 98 98 100 100 99 100 100 100 98 98 98 90 87 79 76 79 100 70 88 65 84 99 100 92 73 55 40 53 82 84 25 31 30 20 54 58 53
98 100 100 100 100 100 100 100 100 91 97 100 99 100 100 100 100 99 99 92 93 86 83 84 97 99 73 83 72 100 100 100 91 85 63 46 52 100 92 79 59 24 26 32 100
70 65 86 92 100 100 97 96 87 90 90 98 96 97 100 100 100 100 98 93 90 89 94 95 92 100 81 85 76 93 94 100 100 97 80 73 65 88 92 100 100 63 24 30 31
71 60 56 68 87 99 100 98 94 91 94 87 93 97 100 99 100 100 96 92 92 96 99 100 89 99 100 77 94 72 92 100 100 96 88 88 68 91 99 92 90 100 99 76 49
70 65 39 41 64 90 100 83 45 38 53 81 86 86 91 99 98 100 100 100 99 95 94 86 74 73 100 85 94 74 93 88 100 100 86 74 90 81 82 91 100 100 100 100 100
72 42 45 36 45 66 74 74 56 16 17 35 65 55 61 92 79 97 99 98 100 89 86 58 51 46 71 90 79 86 68 95 91 100 98 77 91 91 92 93 100 100 100 100 100
52 40 28 27 31 35 39 48 42 24 14 18 36 34 31 43 39 60 60 72 77 72 61 40 35 40 45 91 56 95 62 79 90 100 100 92 84 73 84 68 94 100 100 100 100
42 28 17 20 20 21 23 24 27 21 14 15 18 21 19 20 24 28 31 33 48 42 32 28 26 27 37 54 47 65 88 62 90 97 90 100 99 69 79 80 86 89 100 100 83
27 22 14 12 12 11 11 12 12 10 13 12 13 13 14 16 15 17 20 23 25 25 19 18 17 17 27 31 42 43 87 63 78 85 78 90 99 54 56 80 93 100 100 95 84
Wind_Speed
27 28 30 28 30 34 35 37 38 40 41 42 43 46 48 52 55 57 60 62 64 67 71 74 76 79 82 86 91 96 96 95 95 98 104 109 110 117 124 122 115 108 108 111 108
30 33 32 30 33 31 35 39 41 43 46 50 52 53 54 57 59 62 65 66 68 69 72 76 79 81 84 89 94 99 99 99 103 104 106 108 114 119 123 122 125 115 114 121 116
31 33 35 38 36 35 36 35 37 39 41 44 46 47 49 54 58 62 64 67 68 71 76 79 83 87 92 97 101 102 102 108 108 115 117 116 117 123 124 122 117 126 126 119 119
36 36 35 38 38 41 40 41 43 43 44 48 46 45 52 56 58 61 64 65 69 74 80 82 87 90 94 97 99 101 105 108 109 117 125 128 127 128 130 126 131 131 129 133 120
34 36 38 39 40 40 39 45 47 47 51 53 54 57 58 58 54 58 63 67 72 75 79 83 90 94 101 104 105 103 100 101 107 109 115 126 134 134 131 133 130 132 134 136 131
40 40 40 40 42 46 45 46 49 52 54 54 57 60 61 64 65 67 73 77 77 83 88 90 90 91 89 91 88 86 89 95 102 104 111 120 126 133 132 136 137 143 138 136 131
41 44 44 44 45 48 51 53 56 58 59 60 63 66 65 65 69 74 79 80 82 80 82 82 82 82 81 81 85 85 86 96 97 96 93 106 108 102 108 124 136 143 142 136 132
45 45 46 48 50 55 58 61 62 64 66 68 66 63 68 69 71 70 72 74 77 73 72 74 74 73 72 72 79 80 86 88 95 76 77 85 74 80 98 114 121 128 133 135 130
46 50 51 52 48 51 47 42 46 45 47 49 49 50 52 54 57 60 61 64 64 63 63 66 67 64 66 68 74 86 89 84 79 71 73 72 61 68 80 97 113 113 119 120 124
48 44 44 44 42 42 42 41 41 41 43 45 47 47 48 48 49 51 55 59 60 60 61 62 62 60 59 65 71 83 76 67 61 63 61 61 55 65 78 90 98 109 112 112 111
44 43 43 43 44 45 45 45 46 47 45 47 47 47 47 48 52 54 52 52 52 52 54 55 54 52 56 63 69 73 63 52 46 50 51 45 51 59 63 69 77 86 105 104 96
43 43 43 43 45 48 50 52 51 49 48 48 48 49 49 48 49 50 52 55 53 51 50 49 50 51 55 58 63 55 47 39 36 33 36 34 41 44 46 48 63 74 89 101 96
48 45 44 46 47 48 48 49 49 48 48 49 48 49 49 50 50 49 48 49 50 51 48 51 48 45 49 57 58 46 37 33 24 24 26 26 29 33 39 47 56 68 86 97 102
52 50 51 51 48 51 53 53 55 54 49 49 50 48 49 48 48 48 49 49 51 50 48 45 49 46 48 55 56 47 37 30 23 21 19 16 19 29 32 43 53 68 78 83 91
57 56 55 54 53 52 54 56 55 55 55 57 56 53 52 52 49 50 46 47 46 50 51 45 44 44 41 46 51 49 42 36 28 20 14 11 15 20 28 37 44 58 60 76 88
60 60 56 57 56 55 53 56 56 53 54 58 58 56 57 54 54 54 52 50 49 50 46 49 42 42 39 40 43 45 43 34 30 14 10 6 13 24 39 52 65 74 70 82 89
64 64 59 60 60 59 57 56 58 59 58 59 61 59 58 56 57 57 56 54 52 46 48 48 44 39 39 35 39 41 41 34 25 11 1 4 19 26 39 47 54 67 76 91 92
65 66 69 66 59 61 59 57 57 59 59 59 59 60 59 59 58 57 55 56 57 51 46 41 48 38 37 26 28 33 37 31 25 7 5 5 9 20 43 57 59 67 74 91 100
63 67 68 68 64 63 63 60 59 60 60 61 61 57 62 63 62 62 58 60 59 57 50 43 44 42 33 30 27 26 29 30 19 14 11 12 10 2 22 30 53 63 77 84 97
75 68 69 68 64 61 62 63 62 61 60 61 60 58 59 59 63 63 63 62 60 59 55 48 38 45 33 32 25 20 19 24 19 20 17 15 11 19 22 21 25 44 60 78 93
85 81 71 68 64 61 61 64 65 66 60 59 60 60 59 56 59 59 61 62 63 61 59 55 40 36 41 33 31 20 13 14 17 13 13 19 15 27 27 24 19 24 49 59 83
97 85 74 73 70 64 65 66 69 68 65 60 57 58 58 60 58 59 59 61 61 60 59 56 44 33 39 34 35 27 17 11 11 14 15 14 20 32 34 31 35 35 27 37 60
108 87 81 74 68 68 69 72 69 65 65 61 59 58 60 60 58 59 61 62 62 61 59 54 45 34 35 42 38 35 26 17 9 12 16 12 19 30 37 37 49 54 54 51 66
107 88 80 75 72 71 70 74 73 67 61 61 58 59 58 60 63 59 60 59 60 59 57 53 45 40 34 44 41 41 35 27 19 16 14 20 21 24 39 45 50 67 67 64 74
103 88 82 79 76 73 71 72 73 68 63 62 60 63 60 59 59 59 57 59 59 56 55 50 43 43 38 44 44 47 44 36 27 25 14 23 29 27 28 43 54 63 60 70 77
113 93 90 88 83 75 73 70 70 66 61 63 61 63 61 59 57 55 56 57 57 56 54 49 42 42 41 44 46 46 51 46 38 37 29 29 33 38 36 38 49 57 70 73 81
112 96 92 88 79 73 69 66 64 62 60 60 61 60 60 59 56 56 54 56 54 56 54 49 45 40 38 47 46 44 57 53 50 44 40 29 33 33 41 39 44 52 62 75 69
Wind_Direction
303 296 287 284 278 275 271 271 265 264 262 262 261 263 263 263 261 261 261 261 261 262 262 262 262 261 260 261 260 258 256 255 255 252 247 246 245 245 242 241 242 241 238 238 236
313 307 303 284 283 278 273 270 267 266 264 265 265 266 267 265 262 264 264 264 263 262 262 262 262 262 263 262 260 260 259 259 257 255 253 251 246 244 242 240 240 241 237 236 237
319 315 305 296 291 282 283 280 279 275 277 275 276 274 276 275 271 267 264 263 263 265 266 266 266 263 263 261 262 262 261 260 257 255 252 251 249 247 245 240 239 242 238 236 236
324 317 307 305 291 280 279 279 279 277 279 280 274 276 279 278 276 275 274 271 270 268 268 270 270 270 270 269 269 269 268 264 260 258 253 250 247 248 247 244 240 240 240 236 232
310 309 308 305 296 291 283 279 277 274 277 277 272 272 270 273 274 277 272 271 272 270 270 273 274 274 274 274 275 272 271 268 261 259 257 253 247 248 250 247 244 240 237 235 233
313 303 294 292 293 289 286 286 279 275 276 276 276 277 277 272 273 271 272 273 272 274 274 274 278 278 277 277 277 275 272 269 266 259 257 257 253 249 247 245 244 241 236 234 231
301 301 299 295 291 287 284 280 277 275 275 277 279 278 276 273 273 275 278 276 276 279 278 281 282 282 281 281 281 279 278 274 273 267 262 256 252 247 242 240 240 239 240 235 230
298 300 298 297 290 290 288 285 286 285 283 282 283 281 277 277 278 279 280 281 280 279 281 282 283 283 283 286 287 289 286 286 286 278 277 259 254 245 237 236 235 235 238 236 230
310 306 309 307 304 301 298 301 294 294 291 289 287 287 284 284 281 280 280 280 283 282 281 284 285 290 291 292 292 291 294 294 287 284 274 267 256 244 232 228 230 230 231 232 231
315 315 312 314 319 312 311 312 306 304 304 303 300 297 294 290 289 290 291 290 290 290 291 290 293 293 294 296 297 296 297 295 287 283 275 269 258 244 235 230 228 224 225 226 222
326 323 321 325 323 322 318 316 314 312 311 310 309 307 303 298 298 298 298 296 296 296 294 295 297 302 299 302 305 304 302 296 289 283 274 263 253 240 238 231 227 223 221 222 219
330 326 326 328 327 327 326 323 321 319 315 313 311 308 308 308 306 303 302 300 300 299 299 300 305 308 306 308 313 314 308 304 295 289 281 268 250 239 236 225 218 212 214 216 216
342 338 332 329 327 325 325 326 323 320 318 315 312 312 314 315 314 311 310 308 307 305 302 302 307 311 312 320 322 328 320 312 304 293 282 270 249 226 217 213 208 203 205 209 208
340 337 331 328 327 326 328 327 326 325 323 322 319 314 312 312 313 315 315 313 314 313 310 304 309 318 319 328 338 343 338 334 320 307 292 263 229 216 201 200 194 199 199 204 205
342 337 331 329 326 323 321 322 321 320 319 318 319 317 318 316 314 313 313 318 317 315 316 311 306 315 321 333 343 345 342 341 337 315 286 250 208 191 175 178 189 199 194 197 200
336 335 332 329 326 319 317 314 314 315 313 313 315 314 315 314 314 315 316 317 321 322 318 314 307 310 322 330 344 351 347 343 333 315 288 212 177 175 168 172 184 193 192 197 201
328 330 329 326 325 323 318 312 311 310 308 308 309 308 309 310 311 312 314 314 317 320 323 319 313 305 315 329 339 348 356 344 320 289 303 158 159 164 178 176 189 193 190 195 189
326 327 325 323 319 318 318 312 311 311 309 309 307 304 303 305 307 308 310 311 312 315 320 325 314 307 304 315 327 343 352 346 322 282 184 141 162 159 186 180 189 197 196 196 188
327 322 323 321 318 314 313 313 312 307 306 306 305 304 300 300 301 302 303 304 308 312 315 320 322 305 292 302 313 328 342 347 327 297 243 206 172 161 199 197 197 196 196 198 199
337 326 320 319 318 315 311 311 310 310 305 304 303 303 300 300 300 301 300 300 302 306 310 312 318 301 286 288 291 308 332 340 336 312 274 246 203 135 126 169 207 212 204 202 197
341 336 324 319 315 312 309 307 307 307 307 303 301 298 298 298 296 296 297 298 300 302 303 306 306 296 286 269 277 280 305 331 333 297 285 258 182 152 148 151 160 195 205 204 201
342 337 331 323 318 310 310 310 308 306 305 303 298 296 294 294 292 292 292 295 299 299 299 299 299 288 275 265 262 260 265 289 313 303 267 256 244 173 168 171 148 139 167 190 207
343 336 334 328 319 311 308 311 311 306 304 300 297 293 293 292 292 289 289 291 293 295 296 296 292 281 264 263 247 249 247 244 250 283 273 231 243 205 187 175 162 165 170 191 195
343 338 332 329 325 317 314 311 311 309 307 299 295 292 292 288 289 289 289 289 289 290 290 291 286 278 260 252 243 244 235 236 224 249 279 248 230 214 193 181 175 176 180 188 184
340 339 335 330 322 317 313 311 308 307 309 302 297 296 295 292 292 290 289 288 288 286 285 283 280 273 263 245 245 234 234 227 229 229 234 255 228 221 207 204 190 186 189 193 196
343 341 337 332 323 317 313 309 308 308 307 303 299 296 296 294 292 289 289 288 286 286 283 280 274 269 263 250 243 230 234 228 220 227 210 227 237 219 210 203 207 203 200 203 202
343 340 336 330 324 320 315 314 309 308 305 301 298 298 296 295 294 291 289 286 284 282 281 279 276 269 260 255 247 234 227 229 224 223 225 220 233 228 213 205 200 205 209 208 206